This is the latest recevied weather packets stored in our database for station/object SQ3MKP-13. If no packets are shown the sender has not sent any weather packets the latest 10 day(s).
| Time | Temp. | Humidity | Pressure | Rain* | Wind** | Luminosity | Snow |
|---|---|---|---|---|---|---|---|
| 1777876169 | 18.89° C | 49% | 1002.5 hPa | - | - | 243 W/m² | - |
| 1777875868 | 18.33° C | 50% | 1002.3 hPa | - | - | 122 W/m² | - |
| 1777875567 | 18.33° C | 52% | 1002.5 hPa | - | - | 120 W/m² | - |
| 1777875266 | 17.78° C | 52% | 1002.6 hPa | - | - | 117 W/m² | - |
| 1777874965 | 17.78° C | 53% | 1002.5 hPa | - | - | 117 W/m² | - |
| 1777874664 | 18.33° C | 51% | 1002.2 hPa | - | - | 117 W/m² | - |
| 1777874363 | 18.33° C | 49% | 1002 hPa | - | - | 216 W/m² | - |
| 1777874062 | 17.78° C | 50% | 1001.9 hPa | - | - | 216 W/m² | - |
| 1777873762 | 17.22° C | 53% | 1002 hPa | - | - | 214 W/m² | - |
| 1777873461 | 16.67° C | 55% | 1002.2 hPa | - | - | 186 W/m² | - |
| 1777873160 | 16.67° C | 55% | 1002.2 hPa | - | - | 201 W/m² | - |
| 1777872859 | 16.11° C | 56% | 1002.2 hPa | - | - | 151 W/m² | - |
| 1777872558 | 16.11° C | 56% | 1002.2 hPa | - | - | 164 W/m² | - |
| 1777872257 | 16.11° C | 56% | 1002.2 hPa | - | - | 159 W/m² | - |
| 1777871956 | 15.56° C | 56% | 1002.2 hPa | - | - | 162 W/m² | - |
| 1777871655 | 14.44° C | 59% | 1002.2 hPa | - | - | 141 W/m² | - |
| 1777871354 | 14.44° C | 61% | 1002.2 hPa | - | - | 127 W/m² | - |
| 1777871053 | 14.44° C | 61% | 1002.3 hPa | - | - | 88 W/m² | - |
| 1777870752 | 14.44° C | 61% | 1002.2 hPa | - | - | 85 W/m² | - |
| 1777870450 | 13.89° C | 61% | 1002.2 hPa | - | - | 81 W/m² | - |
| 1777870150 | 13.89° C | 61% | 1002.1 hPa | - | - | 77 W/m² | - |
| 1777869849 | 13.89° C | 61% | 1002 hPa | - | - | 60 W/m² | - |
| 1777869547 | 13.89° C | 61% | 1002 hPa | - | - | 50 W/m² | - |
| 1777869246 | 13.33° C | 61% | 1002 hPa | - | - | 47 W/m² | - |
| 1777868945 | 12.78° C | 63% | 1002 hPa | - | - | 43 W/m² | - |
* Rain since midnight (hover to see other rain measurements)
** Current wind speed in m/s (hover to see current wind gust speed)